FW0267 Weather Reports


time (UTC)temp
C
wind
direction
speed
KPH
gust
KPH
rain 1hr
cm
rain 24hr
cm
rain mn
cm
humidity
%
barometer
mb
20260906044554 -17 118 0.0 0.0 0.00 1.55 0.00 1012.4
20260906044053 -17 118 0.0 0.0 0.00 1.55 0.00 1012.4
20260906043551 -17 118 0.0 1.6 0.00 1.55 0.00 1012.4
20260906043055 -17 118 0.0 1.6 0.00 1.55 0.00 1012.5
20260906042547 -17 107 0.0 1.6 0.00 1.55 0.00 1012.7
20260906042046 -17 336 0.0 1.6 0.00 1.55 0.00 1012.7
20260906041545 -17 121 0.0 0.0 0.00 1.55 0.00 1012.8
20260906041044 -17 121 0.0 0.0 0.00 1.55 0.00 1012.8
20260906040545 -17 121 0.0 1.6 0.00 1.55 0.00 1012.7
20260906040041 -17 121 0.0 1.6 0.00 1.55 0.00 1012.6
20260906035541 -17 80 0.0 1.6 0.00 1.55 1.55 1012.7
20260906035040 -17 46 0.0 1.6 0.00 1.55 1.55 1012.8
20260906034540 -17 87 0.0 0.0 0.00 1.55 1.55 1012.8
20260906034040 -17 87 0.0 0.0 0.00 1.55 1.55 1012.7
20260906033541 -17 87 0.0 1.6 0.00 1.55 1.55 1012.6
20260906033047 -17 87 0.0 1.6 0.00 1.55 1.55 1012.5
20260906032539 -17 105 0.0 1.6 0.00 1.55 1.55 1012.5
20260906032040 -17 107 0.0 1.6 0.00 1.55 1.55 1012.8
20260906031540 -17 101 0.0 0.0 0.00 1.55 1.55 1012.8
20260906031039 -17 101 0.0 0.0 0.00 1.55 1.55 1012.6
20260906030539 -17 101 0.0 1.6 0.00 1.55 1.55 1012.6
20260906030043 -17 101 0.0 1.6 0.00 1.55 1.55 1012.6
20260906025537 -17 98 0.0 1.6 0.00 1.55 1.55 1012.7
20260906025038 -17 94 0.0 1.6 0.00 1.55 1.55 1012.8
20260906024544 -17 84 0.0 0.0 0.00 1.55 1.55 1012.8
20260906024037 -17 84 0.0 0.0 0.00 1.55 1.55 1012.7
20260906023542 -17 84 0.0 1.6 0.00 1.55 1.55 1012.6
20260906023048 -17 108 0.0 1.6 0.00 1.55 1.55 1012.7
20260906022536 -17 113 0.0 1.6 0.00 1.55 1.55 1012.7
20260906022038 -17 86 0.0 1.6 0.00 1.55 1.55 1012.5
20260906021537 -17 23 0.0 0.0 0.00 1.55 1.55 1012.6
20260906021036 -17 23 0.0 1.6 0.00 1.55 1.55 1012.7
20260906020536 -17 23 0.0 1.6 0.00 1.55 1.55 1012.5
20260906020046 -17 76 0.0 1.6 0.00 1.55 1.55 1012.5
20260906015535 -17 100 0.0 1.6 0.00 1.55 1.55 1012.6
20260906015035 -17 104 0.0 0.0 0.00 1.55 1.55 1012.7
20260906014536 -17 104 0.0 0.0 0.00 1.55 1.55 1012.7
20260906014040 -17 104 0.0 1.6 0.00 1.55 1.55 1012.6
20260906013537 -17 107 0.0 1.6 0.00 1.55 1.55 1012.4
20260906013047 -17 94 0.0 1.6 0.00 1.55 1.55 1012.4
20260906012538 -17 49 0.0 1.6 0.00 1.55 1.55 1012.3
20260906012034 -17 105 0.0 0.0 0.00 1.55 1.55 1012.3
20260906011542 -17 105 0.0 0.0 0.00 1.55 1.55 1012.4
20260906011036 -17 105 0.0 3.2 0.00 1.55 1.55 1012.2
20260906010534 -17 117 0.0 3.2 0.00 1.55 1.55 1012.0
20260906010039 -17 111 1.6 3.2 0.00 1.55 1.55 1011.8
20260906005634 -17 129 1.6 3.2 0.00 1.55 1.55 1012.0
20260906005034 -17 122 0.0 0.0 0.00 1.55 1.55 1011.9
20260906004534 -17 122 0.0 3.2 0.00 1.55 1.55 1011.8
20260906004036 -17 122 0.0 3.2 0.00 1.55 1.55 1011.8
20260906003532 -17 111 0.0 1.6 0.00 1.55 1.55 1011.8
20260906003035 -17 95 0.0 1.6 0.00 1.55 1.55 1011.8
20260906002531 -17 120 0.0 0.0 0.00 1.55 1.55 1011.7
20260906002035 -17 120 0.0 1.6 0.00 1.55 1.55 1011.5
20260906001535 -17 120 0.0 3.2 0.00 1.55 1.55 1011.5
20260906001031 -17 100 0.0 3.2 0.00 1.55 1.55 1011.4
20260906000535 -17 115 0.0 3.2 0.00 1.55 1.55 1011.3
20260906000047 -17 90 0.0 0.0 0.00 1.55 1.55 1011.2
20260905235532 -17 90 0.0 1.6 0.00 1.73 1.55 1011.3
20260905235031 -17 101 0.0 1.6 0.00 1.73 1.55 1011.3
20260905234530 -17 97 0.0 1.6 0.00 1.73 1.55 1011.3
20260905234031 -17 68 0.0 1.6 0.00 1.73 1.55 1011.2
20260905233532 -17 125 0.0 0.0 0.00 1.73 1.55 1011.1
20260905233029 -17 125 0.0 3.2 0.00 1.73 1.55 1010.9
20260905232528 -17 125 1.6 3.2 0.00 1.73 1.55 1010.8
20260905232027 -17 126 1.6 3.2 0.00 1.73 1.55 1010.9
20260905231528 -17 124 0.0 3.2 0.00 1.73 1.55 1011.1
20260905231027 -17 111 0.0 1.6 0.00 1.73 1.55 1011.3
20260905230526 -17 112 0.0 1.6 0.00 1.73 1.55 1011.3
20260905230026 -17 112 0.0 1.6 0.00 1.73 1.55 1011.4
20260905225527 -17 75 0.0 3.2 0.00 2.08 1.55 1011.3
20260905225023 -17 107 0.0 3.2 0.00 2.08 1.55 1011.1
20260905224522 -17 126 0.0 3.2 0.00 2.08 1.55 1011.4
20260905224021 -17 123 0.0 1.6 0.00 2.08 1.55 1011.4
20260905223519 -17 106 0.0 1.6 0.00 2.08 1.55 1011.2
20260905223018 -17 106 0.0 1.6 0.00 2.08 1.55 1011.1
20260905222516 -17 85 0.0 1.6 0.00 2.08 1.55 1011.1
20260905222014 -17 95 0.0 1.6 0.00 2.08 1.55 1011.0
20260905221513 -17 107 0.0 1.6 0.00 2.08 1.55 1011.1
20260905221012 -17 125 0.0 1.6 0.00 2.08 1.55 1011.1
20260905220513 -17 138 0.0 1.6 0.00 2.08 1.55 1011.1
20260905220012 -17 138 0.0 3.2 0.00 2.08 1.55 1011.0
20260905215509 -17 98 0.0 3.2 0.00 2.08 1.55 1011.2
20260905215010 -17 170 0.0 1.6 0.00 2.08 1.55 1011.2
20260905214508 -17 103 0.0 1.6 0.00 2.08 1.55 1011.2
20260905214008 -17 123 0.0 1.6 0.00 2.08 1.55 1011.2
20260905213508 -17 92 0.0 1.6 0.00 2.08 1.55 1011.2
20260905213009 -17 134 0.0 3.2 0.00 2.08 1.55 1011.3
20260905212508 -17 134 0.0 3.2 0.00 2.08 1.55 1011.3
20260905212007 -17 135 0.0 3.2 0.00 2.08 1.55 1011.2
20260905211507 -17 142 1.6 3.2 0.00 2.08 1.55 1011.1
20260905211007 -17 136 0.0 1.6 0.00 2.08 1.55 1011.3
20260905210509 -17 88 0.0 1.6 0.00 2.08 1.55 1011.3
20260905210006 -17 109 0.0 3.2 0.00 2.08 1.55 1011.4
20260905205505 -17 109 0.0 3.2 0.00 2.08 1.55 1011.4
20260905205006 -17 121 1.6 3.2 0.00 2.08 1.55 1011.4
20260905204508 -17 107 1.6 3.2 0.00 2.08 1.55 1011.4
20260905204005 -17 84 0.0 1.6 0.00 2.08 1.55 1011.3
20260905203505 -17 101 0.0 3.2 0.00 2.08 1.55 1011.2
20260905203005 -17 101 0.0 3.2 0.00 2.08 1.55 1011.3
20260905202508 -17 122 1.6 3.2 0.00 2.08 1.55 1011.3
20260905202005 -17 123 1.6 3.2 0.00 2.08 1.55 1011.3
20260905201508 -17 115 0.0 1.6 0.00 2.08 1.55 1011.4
20260905201006 -17 125 0.0 1.6 0.03 2.08 1.55 1011.4
20260905200506 -17 125 0.0 3.2 0.05 2.08 1.55 1011.4
20260905200005 -17 96 0.0 3.2 0.05 2.08 1.55 1011.2
20260905195504 -17 5 0.0 3.2 0.05 2.08 1.55 1011.4
20260905195006 -17 90 0.0 1.6 0.08 2.08 1.55 1011.5
20260905194504 -17 103 0.0 1.6 0.08 2.08 1.55 1011.5
20260905194003 -17 103 0.0 1.6 0.08 2.08 1.55 1011.5
20260905193503 -17 103 0.0 3.2 0.13 2.08 1.55 1011.7
20260905193007 -17 96 0.0 3.2 0.13 2.08 1.55 1011.4
20260905192503 -17 123 0.0 3.2 0.13 2.08 1.55 1011.4
20260905192004 -17 126 1.6 3.2 0.13 2.08 1.55 1011.3
20260905191504 -17 132 0.0 0.0 0.13 2.08 1.55 1011.8
20260905191004 -17 132 0.0 3.2 0.10 2.06 1.52 1012.0
20260905190502 -17 132 0.0 3.2 0.08 2.03 1.50 1012.1
20260905190004 -17 21 0.0 3.2 0.08 2.03 1.50 1012.4
20260905185502 -17 126 1.6 3.2 0.05 2.01 1.45 1012.3
20260905185001 -17 360 0.0 0.0 0.05 2.01 1.45 1012.7
20260905184505 -17 360 0.0 3.2 0.05 2.01 1.45 1012.1
20260905184001 -17 360 1.6 3.2 0.03 1.98 1.42 1012.2
20260905183601 -17 11 0.0 3.2 0.00 1.96 1.42 1011.9
20260905183002 -17 350 0.0 3.2 0.00 1.96 1.42 1011.9
20260905182502 -17 108 0.0 4.8 0.00 1.96 1.42 1011.9
20260905182101 -17 123 0.0 4.8 0.00 1.96 1.42 1012.0
20260905181601 -17 116 0.0 3.2 0.00 1.96 1.42 1012.0
20260905181058 -17 23 0.0 4.8 0.00 1.96 1.42 1012.1
20260905180556 -17 81 0.0 4.8 0.00 1.96 1.42 1012.0
20260905180055 -17 349 0.0 4.8 0.03 1.96 1.42 1012.3
20260905175553 -17 134 0.0 0.0 0.08 1.96 1.42 1012.4
20260905175052 -17 130 0.0 3.2 0.13 1.96 1.42 1012.5
20260905174550 -17 131 0.0 3.2 0.15 1.96 1.42 1012.7
20260905174048 -17 82 0.0 1.6 0.23 1.96 1.42 1012.8
20260905173550 -17 100 0.0 3.2 0.43 1.96 1.42 1013.0
20260905173046 -17 111 0.0 1.6 0.61 1.96 1.42 1012.8
20260905172544 -17 5 0.0 3.2 0.79 1.96 1.42 1012.6
20260905172043 -17 5 0.0 3.2 1.09 1.96 1.42 1012.6
20260905171543 -17 110 0.0 3.2 1.40 1.96 1.42 1012.7
20260905171039 -17 107 0.0 4.8 1.42 1.96 1.42 1012.7
20260905170538 -17 78 0.0 4.8 1.42 1.96 1.42 1013.0
20260905170038 -17 94 0.0 1.6 1.40 1.93 1.40 1013.2
20260905165536 -17 94 0.0 3.2 1.35 1.88 1.35 1013.7
20260905165033 -17 92 0.0 3.2 1.30 1.83 1.30 1014.0
20260905164533 -17 12 0.0 3.2 1.27 1.80 1.27 1013.9
20260905164030 -17 22 0.0 3.2 1.17 1.70 1.17 1014.0
20260905163529 -17 46 0.0 1.6 0.97 1.50 0.97 1014.0
20260905163028 -17 65 0.0 3.2 0.81 1.35 0.81 1013.8
20260905162530 -17 65 0.0 3.2 0.58 1.12 0.58 1014.1
20260905162025 -17 117 0.0 3.2 0.30 0.84 0.30 1014.1
20260905161524 -17 123 1.6 3.2 0.00 0.53 0.00 1014.3
20260905161026 -17 349 0.0 4.8 0.00 0.53 0.00 1013.6
20260905160520 -17 60 0.0 4.8 0.00 0.53 0.00 1013.1
20260905160026 -17 355 0.0 3.2 0.00 0.53 0.00 1013.0
20260905155517 -17 355 0.0 4.8 0.00 0.53 0.00 1012.8
20260905155016 -17 142 1.6 4.8 0.00 0.53 0.00 1012.4
20260905154514 -17 120 0.0 4.8 0.00 0.53 0.00 1012.4
20260905154013 -17 19 1.6 4.8 0.00 0.53 0.00 1012.5
20260905153513 -17 355 1.6 8.0 0.00 0.53 0.00 1012.5
20260905153010 -17 317 3.2 8.0 0.00 0.53 0.00 1012.5
20260905152509 -17 18 0.0 4.8 0.00 0.53 0.00 1012.6
20260905152010 -17 82 0.0 4.8 0.00 0.53 0.00 1012.7
20260905151506 -17 117 1.6 4.8 0.00 0.53 0.00 1012.7
20260905151006 -17 317 1.6 6.4 0.00 0.53 0.00 1012.7
20260905150504 -17 86 1.6 6.4 0.00 0.53 0.00 1012.7
20260905150002 -17 336 1.6 4.8 0.00 0.53 0.00 1012.8
20260905145601 -17 342 1.6 4.8 0.00 0.53 0.00 1012.7
20260905145058 -17 136 1.6 6.4 0.00 0.53 0.00 1012.7
20260905144557 -17 69 1.6 9.7 0.00 0.53 0.00 1012.7
20260905144056 -17 94 1.6 9.7 0.00 0.53 0.00 1012.6
20260905143554 -17 126 1.6 6.4 0.00 0.53 0.00 1012.7
20260905143053 -17 360 0.0 3.2 0.00 0.53 0.00 1012.7
20260905142553 -17 104 0.0 3.2 0.00 0.53 0.00 1012.7
20260905142053 -17 104 0.0 4.8 0.00 0.53 0.00 1012.7
20260905141551 -17 132 0.0 4.8 0.00 0.53 0.00 1012.7
20260905141052 -17 85 0.0 4.8 0.00 0.53 0.00 1012.6
20260905140547 -17 320 0.0 6.4 0.00 0.53 0.00 1012.4
20260905140048 -17 327 0.0 6.4 0.00 0.53 0.00 1012.4
20260905135545 -17 327 1.6 6.4 0.00 0.53 0.00 1012.3
20260905135042 -17 116 0.0 4.8 0.00 0.53 0.00 1012.2
20260905134542 -17 148 0.0 4.8 0.00 0.53 0.00 1012.2
20260905134040 -17 82 0.0 4.8 0.00 0.53 0.00 1012.2
20260905133538 -17 316 1.6 4.8 0.00 0.53 0.00 1012.2
20260905133044 -17 316 0.0 6.4 0.00 0.53 0.00 1012.1
20260905132536 -17 108 0.0 3.2 0.00 0.53 0.00 1012.3
20260905132035 -17 128 0.0 3.2 0.00 0.53 0.00 1012.3
20260905131535 -17 125 0.0 3.2 0.00 0.53 0.00 1012.3
20260905131031 -17 92 0.0 3.2 0.00 0.53 0.00 1012.1
20260905130529 -17 111 0.0 3.2 0.00 0.53 0.00 1012.0
20260905130031 -17 111 0.0 0.0 0.00 0.53 0.00 1011.9
20260905125527 -17 111 0.0 0.0 0.00 0.53 0.00 1011.9
20260905125026 -17 111 0.0 0.0 0.00 0.53 0.00 1012.0
20260905124525 -17 111 0.0 3.2 0.00 0.53 0.00 1012.1
20260905124026 -17 111 0.0 3.2 0.00 0.53 0.00 1012.3
20260905123521 -17 121 0.0 1.6 0.00 0.53 0.00 1012.2
20260905123019 -17 111 0.0 1.6 0.00 0.53 0.00 1012.3
20260905122518 -17 111 0.0 0.0 0.00 0.53 0.00 1012.4
20260905122016 -17 111 0.0 0.0 0.00 0.53 0.00 1012.3
20260905121515 -17 111 0.0 0.0 0.00 0.53 0.00 1012.3
20260905121014 -17 111 0.0 3.2 0.00 0.53 0.00 1012.4
20260905120513 -17 109 0.0 3.2 0.00 0.53 0.00 1012.3
20260905120015 -17 121 0.0 3.2 0.00 0.53 0.00 1012.1
20260905115512 -17 107 0.0 0.0 0.00 0.53 0.00 1012.2
20260905115008 -17 107 0.0 0.0 0.00 0.53 0.00 1012.2
20260905114506 -17 107 0.0 0.0 0.00 0.53 0.00 1012.2
20260905114005 -17 107 0.0 0.0 0.00 0.53 0.00 1012.0
20260905113504 -17 107 0.0 1.6 0.00 0.53 0.00 1012.0
20260905113002 -17 107 0.0 1.6 0.00 0.53 0.00 1012.0
20260905112500 -17 78 0.0 3.2 0.00 0.53 0.00 1011.9
20260905112059 -17 118 0.0 3.2 0.00 0.53 0.00 1011.9
20260905111644 -17 116 0.0 0.0 0.00 0.53 0.00 1012.0
20260905111057 -17 116 0.0 0.0 0.00 0.53 0.00 1012.1
20260905110557 -17 116 0.0 1.6 0.00 0.53 0.00 1011.9
20260905110054 -17 116 0.0 1.6 0.00 0.53 0.00 1012.0
20260905105552 -17 105 0.0 1.6 0.00 0.53 0.00 1011.9
20260905105053 -17 103 0.0 1.6 0.00 0.53 0.00 1011.9
20260905104552 -17 106 0.0 0.0 0.00 0.53 0.00 1011.8
20260905104051 -17 106 0.0 0.0 0.00 0.53 0.00 1011.7
20260905103546 -17 106 0.0 0.0 0.00 0.53 0.00 1011.6
20260905103045 -17 106 0.0 0.0 0.00 0.53 0.00 1011.7
20260905102543 -17 106 0.0 1.6 0.00 0.53 0.00 1011.6
20260905102041 -17 106 0.0 1.6 0.00 0.53 0.00 1011.5
20260905101549 -17 105 0.0 1.6 0.00 0.53 0.00 1011.4
20260905101039 -17 92 0.0 1.6 0.00 0.53 0.00 1011.4
20260905100537 -17 100 0.0 0.0 0.00 0.53 0.00 1011.5
20260905100043 -17 100 0.0 0.0 0.00 0.53 0.00 1011.4
20260905095534 -17 100 0.0 0.0 0.00 0.53 0.00 1011.4
20260905095032 -17 100 0.0 0.0 0.00 0.53 0.00 1011.4
20260905094531 -17 100 0.0 1.6 0.00 0.53 0.00 1011.3
20260905094029 -17 100 0.0 1.6 0.00 0.53 0.00 1011.2
20260905093528 -17 117 0.0 1.6 0.00 0.53 0.00 1011.3
20260905093027 -17 88 0.0 1.6 0.00 0.53 0.00 1011.3
20260905092525 -17 122 0.0 0.0 0.00 0.53 0.00 1011.2
20260905092025 -17 122 0.0 0.0 0.00 0.53 0.00 1011.1
20260905091526 -17 122 0.0 0.0 0.00 0.53 0.00 1011.3
20260905091022 -17 122 0.0 0.0 0.00 0.53 0.00 1011.2
20260905090520 -17 122 0.0 1.6 0.00 0.53 0.00 1011.2
20260905090020 -17 122 0.0 3.2 0.00 0.53 0.00 1011.2
20260905085516 -17 115 0.0 3.2 0.00 0.53 0.00 1011.3
20260905085016 -17 126 1.6 3.2 0.00 0.53 0.00 1011.2
20260905084513 -17 98 0.0 0.0 0.00 0.53 0.00 1011.2
20260905084012 -17 97 0.0 0.0 0.00 0.53 0.00 1011.4
20260905083511 -17 97 0.0 0.0 0.00 0.53 0.00 1011.3
20260905083010 -17 97 0.0 0.0 0.00 0.53 0.00 1011.3
20260905082509 -17 97 0.0 1.6 0.00 0.53 0.00 1011.4
20260905082008 -17 106 0.0 1.6 0.00 0.53 0.00 1011.4
20260905081505 -17 122 0.0 1.6 0.00 0.53 0.00 1011.4
20260905081006 -17 111 0.0 1.6 0.00 0.53 0.00 1011.4
20260905080502 -17 115 0.0 0.0 0.00 0.53 0.00 1011.5
20260905080002 -17 115 0.0 0.0 0.00 0.53 0.00 1011.5
20260905075703 -17 115 0.0 0.0 0.00 0.53 0.00 1011.5
20260905075057 -17 115 0.0 1.6 0.00 0.53 0.00 1011.5
20260905074557 -17 108 0.0 3.2 0.00 0.53 0.00 1011.6
20260905074056 -17 107 0.0 3.2 0.00 0.53 0.00 1011.7
20260905073553 -17 121 0.0 0.0 0.00 0.53 0.00 1011.7
20260905073055 -17 121 0.0 0.0 0.00 0.53 0.00 1011.7
20260905072551 -17 121 0.0 0.0 0.00 0.53 0.00 1011.7
20260905072050 -17 121 0.0 1.6 0.00 0.53 0.00 1011.7
20260905071548 -17 121 0.0 3.2 0.00 0.53 0.00 1011.7
20260905071047 -17 122 0.0 3.2 0.00 0.53 0.00 1011.8
20260905070549 -17 15 0.0 1.6 0.00 0.53 0.00 1011.9
20260905070044 -17 114 0.0 1.6 0.00 0.53 0.00 1012.0
20260905065543 -17 111 0.0 0.0 0.00 0.53 0.00 1012.0
20260905065041 -17 111 0.0 1.6 0.00 0.53 0.00 1012.1
20260905064539 -17 111 0.0 1.6 0.00 0.53 0.00 1012.0
20260905064040 -17 111 0.0 1.6 0.00 0.53 0.00 1012.0
20260905063538 -17 103 0.0 3.2 0.00 0.53 0.00 1012.1
20260905063037 -17 98 0.0 3.2 0.00 0.53 0.00 1012.0
20260905062539 -17 86 0.0 0.0 0.00 0.53 0.00 1012.1
20260905062033 -17 86 0.0 0.0 0.00 0.53 0.00 1012.2
20260905061534 -17 86 0.0 0.0 0.00 0.53 0.00 1012.3
20260905061031 -17 86 0.0 1.6 0.00 0.53 0.00 1012.3
20260905060530 -17 86 0.0 1.6 0.00 0.53 0.00 1012.5
20260905060029 -17 97 0.0 1.6 0.00 0.53 0.00 1012.6
20260905055527 -17 117 0.0 1.6 0.00 0.53 0.00 1012.7
20260905055025 -17 112 0.0 0.0 0.00 0.53 0.00 1012.8
20260905054524 -17 112 0.0 0.0 0.00 0.53 0.00 1012.8
20260905054022 -17 112 0.0 3.2 0.00 0.53 0.00 1012.9
20260905053521 -17 112 0.0 3.2 0.00 0.53 0.00 1013.0
20260905053019 -17 125 0.0 3.2 0.00 0.53 0.00 1013.0
20260905052522 -17 112 0.0 1.6 0.00 0.53 0.00 1013.2
20260905052019 -17 78 0.0 0.0 0.00 0.53 0.00 1013.3
20260905051516 -17 76 0.0 0.0 0.00 0.53 0.00 1013.4
20260905051013 -17 76 0.0 1.6 0.00 0.53 0.00 1013.4
20260905050514 -17 76 0.0 1.6 0.00 0.53 0.00 1013.4
20260905050015 -17 104 0.0 1.6 0.00 0.53 0.00 1013.5
20260905045611 -17 76 0.0 1.6 0.00 0.53 0.00 1013.7
20260905045007 -17 86 0.0 1.6 0.00 0.53 0.00 1013.7